GFSGL_prec_precacc12_357.txt.gz
Total_Precipitation_Accumulation
0.04 0.07 0.16 0.26 0.33 0.41 0.52 0.49 0.50 0.56 0.54 0.64 0.67 0.51 0.28 0.18 0.12 0.07 0.02 0.00 0.00 0.00 0.00 0.00 0.00 0.00 0.00 0.00 0.00 0.00 0.00 0.00 0.00 0.00 0.00 0.00 0.00 0.00 0.00 0.00 0.00 0.00 0.00
0.05 0.07 0.10 0.17 0.25 0.21 0.27 0.34 0.39 0.39 0.41 0.45 0.46 0.36 0.23 0.16 0.12 0.08 0.04 0.02 0.00 0.00 0.00 0.00 0.00 0.00 0.00 0.00 0.00 0.00 0.00 0.00 0.00 0.00 0.00 0.00 0.00 0.00 0.00 0.00 0.00 0.00 0.00
0.09 0.08 0.12 0.14 0.16 0.22 0.19 0.18 0.25 0.29 0.33 0.32 0.34 0.38 0.30 0.21 0.15 0.08 0.05 0.02 0.00 0.00 0.00 0.00 0.00 0.00 0.00 0.00 0.00 0.00 0.00 0.00 0.00 0.00 0.00 0.00 0.00 0.00 0.00 0.00 0.00 0.00 0.00
0.08 0.14 0.15 0.17 0.22 0.18 0.24 0.26 0.25 0.25 0.27 0.30 0.28 0.26 0.25 0.21 0.17 0.13 0.09 0.07 0.04 0.02 0.00 0.00 0.00 0.00 0.00 0.00 0.00 0.00 0.00 0.00 0.00 0.00 0.00 0.00 0.00 0.00 0.00 0.00 0.00 0.00 0.00
0.16 0.17 0.20 0.21 0.24 0.32 0.32 0.31 0.33 0.32 0.30 0.29 0.33 0.33 0.27 0.21 0.16 0.13 0.11 0.09 0.06 0.03 0.01 0.00 0.00 0.00 0.00 0.00 0.00 0.00 0.00 0.00 0.00 0.00 0.00 0.00 0.00 0.00 0.00 0.00 0.00 0.00 0.00
0.21 0.25 0.28 0.28 0.30 0.28 0.34 0.37 0.33 0.32 0.33 0.30 0.27 0.27 0.29 0.27 0.26 0.18 0.13 0.11 0.11 0.08 0.05 0.03 0.01 0.01 0.00 0.00 0.00 0.00 0.00 0.00 0.00 0.00 0.00 0.00 0.00 0.00 0.00 0.00 0.00 0.00 0.00
0.31 0.25 0.27 0.32 0.33 0.34 0.29 0.30 0.34 0.34 0.30 0.30 0.31 0.28 0.23 0.20 0.22 0.19 0.17 0.13 0.11 0.10 0.09 0.07 0.04 0.02 0.00 0.00 0.00 0.00 0.00 0.00 0.00 0.00 0.00 0.00 0.00 0.00 0.00 0.00 0.00 0.00 0.00
0.27 0.29 0.27 0.24 0.28 0.33 0.31 0.29 0.26 0.26 0.27 0.28 0.28 0.25 0.23 0.19 0.15 0.11 0.12 0.14 0.12 0.10 0.07 0.03 0.01 0.00 0.00 0.00 0.00 0.00 0.00 0.00 0.00 0.00 0.00 0.00 0.00 0.00 0.00 0.00 0.00 0.00 0.00
0.20 0.20 0.21 0.20 0.20 0.23 0.25 0.25 0.23 0.19 0.18 0.17 0.16 0.14 0.13 0.12 0.10 0.06 0.06 0.06 0.05 0.04 0.03 0.02 0.01 0.00 0.00 0.00 0.00 0.00 0.00 0.00 0.00 0.00 0.00 0.00 0.00 0.00 0.00 0.00 0.00 0.00 0.00
0.16 0.17 0.16 0.14 0.13 0.14 0.15 0.18 0.19 0.17 0.13 0.09 0.09 0.09 0.09 0.07 0.06 0.05 0.04 0.05 0.05 0.03 0.01 0.00 0.00 0.00 0.00 0.00 0.00 0.00 0.00 0.00 0.00 0.00 0.00 0.00 0.00 0.00 0.00 0.00 0.00 0.00 0.00
0.13 0.13 0.12 0.11 0.09 0.08 0.09 0.09 0.09 0.10 0.09 0.10 0.09 0.11 0.08 0.06 0.06 0.05 0.05 0.04 0.03 0.02 0.01 0.01 0.00 0.00 0.00 0.00 0.00 0.00 0.00 0.00 0.00 0.00 0.00 0.00 0.00 0.00 0.00 0.00 0.00 0.00 0.00
0.07 0.07 0.07 0.07 0.05 0.04 0.03 0.04 0.03 0.03 0.04 0.07 0.10 0.12 0.10 0.06 0.04 0.04 0.03 0.02 0.01 0.01 0.00 0.00 0.00 0.00 0.00 0.00 0.00 0.00 0.00 0.00 0.00 0.00 0.00 0.00 0.00 0.00 0.00 0.00 0.00 0.00 0.00
0.05 0.05 0.05 0.05 0.04 0.03 0.02 0.02 0.02 0.02 0.03 0.05 0.05 0.06 0.07 0.05 0.03 0.02 0.01 0.00 0.00 0.00 0.00 0.00 0.00 0.00 0.00 0.00 0.00 0.00 0.00 0.00 0.00 0.00 0.00 0.00 0.00 0.00 0.00 0.00 0.00 0.00 0.00
0.03 0.04 0.04 0.04 0.04 0.03 0.02 0.02 0.02 0.02 0.02 0.02 0.02 0.02 0.02 0.02 0.01 0.00 0.00 0.00 0.00 0.00 0.00 0.00 0.00 0.00 0.00 0.00 0.00 0.00 0.00 0.00 0.00 0.00 0.00 0.00 0.00 0.00 0.00 0.00 0.00 0.00 0.00
0.02 0.02 0.02 0.02 0.02 0.01 0.01 0.01 0.01 0.01 0.00 0.00 0.00 0.00 0.00 0.01 0.01 0.00 0.00 0.00 0.00 0.00 0.00 0.00 0.00 0.00 0.00 0.00 0.00 0.00 0.00 0.00 0.00 0.00 0.00 0.00 0.00 0.00 0.00 0.00 0.00 0.00 0.00
0.02 0.02 0.02 0.01 0.01 0.01 0.01 0.00 0.00 0.00 0.00 0.01 0.00 0.00 0.00 0.00 0.00 0.00 0.00 0.00 0.00 0.00 0.00 0.00 0.00 0.00 0.00 0.00 0.00 0.00 0.00 0.00 0.00 0.00 0.00 0.00 0.00 0.00 0.00 0.00 0.00 0.00 0.00
0.00 0.00 0.00 0.00 0.00 0.00 0.00 0.00 0.01 0.01 0.01 0.01 0.01 0.01 0.00 0.00 0.00 0.00 0.00 0.00 0.00 0.01 0.02 0.00 0.00 0.00 0.00 0.00 0.00 0.00 0.00 0.00 0.00 0.00 0.00 0.00 0.00 0.00 0.00 0.00 0.00 0.00 0.00
0.00 0.00 0.00 0.00 0.00 0.00 0.00 0.00 0.00 0.00 0.01 0.01 0.01 0.02 0.02 0.01 0.00 0.00 0.01 0.02 0.04 0.02 0.04 0.00 0.00 0.00 0.00 0.00 0.00 0.00 0.00 0.00 0.00 0.00 0.00 0.00 0.00 0.00 0.00 0.00 0.00 0.00 0.00
0.00 0.00 0.00 0.00 0.00 0.00 0.00 0.00 0.00 0.00 0.00 0.00 0.00 0.01 0.04 0.04 0.03 0.02 0.01 0.04 0.03 0.00 0.01 0.00 0.00 0.00 0.00 0.00 0.00 0.00 0.00 0.00 0.00 0.00 0.00 0.00 0.00 0.00 0.00 0.00 0.00 0.00 0.00
0.00 0.00 0.00 0.00 0.00 0.00 0.00 0.00 0.00 0.00 0.00 0.00 0.00 0.00 0.00 0.02 0.06 0.08 0.04 0.02 0.02 0.00 0.00 0.00 0.00 0.00 0.00 0.00 0.00 0.00 0.00 0.00 0.00 0.00 0.00 0.00 0.00 0.00 0.00 0.00 0.00 0.00 0.00
0.00 0.00 0.00 0.00 0.00 0.00 0.00 0.00 0.00 0.00 0.00 0.00 0.00 0.00 0.00 0.00 0.00 0.01 0.03 0.05 0.02 0.01 0.00 0.00 0.00 0.00 0.00 0.00 0.00 0.00 0.00 0.00 0.00 0.00 0.00 0.00 0.00 0.00 0.00 0.00 0.00 0.00 0.00
0.00 0.00 0.00 0.01 0.00 0.00 0.00 0.00 0.00 0.00 0.00 0.00 0.00 0.00 0.00 0.00 0.00 0.00 0.00 0.00 0.01 0.01 0.00 0.00 0.00 0.00 0.00 0.00 0.00 0.00 0.00 0.00 0.00 0.00 0.00 0.00 0.00 0.00 0.00 0.01 0.01 0.01 0.01
0.00 0.00 0.00 0.00 0.01 0.00 0.00 0.00 0.00 0.00 0.00 0.00 0.00 0.00 0.00 0.00 0.00 0.00 0.00 0.00 0.00 0.00 0.00 0.00 0.00 0.00 0.00 0.00 0.00 0.00 0.00 0.00 0.00 0.00 0.00 0.00 0.00 0.00 0.00 0.01 0.00 0.01 0.01
0.00 0.00 0.00 0.00 0.01 0.01 0.01 0.01 0.00 0.00 0.00 0.00 0.00 0.00 0.00 0.00 0.00 0.00 0.00 0.00 0.00 0.00 0.00 0.00 0.00 0.00 0.00 0.00 0.00 0.00 0.00 0.00 0.00 0.00 0.00 0.00 0.00 0.00 0.00 0.01 0.00 0.00 0.00
0.01 0.01 0.01 0.00 0.00 0.01 0.01 0.01 0.01 0.00 0.00 0.00 0.00 0.00 0.00 0.00 0.00 0.00 0.00 0.00 0.00 0.00 0.00 0.00 0.00 0.00 0.00 0.00 0.00 0.00 0.00 0.00 0.00 0.00 0.00 0.00 0.00 0.00 0.00 0.00 0.00 0.00 0.00
0.01 0.01 0.01 0.02 0.03 0.02 0.03 0.01 0.01 0.00 0.01 0.00 0.00 0.00 0.00 0.00 0.00 0.00 0.00 0.00 0.00 0.00 0.00 0.00 0.00 0.00 0.00 0.00 0.00 0.00 0.00 0.00 0.00 0.01 0.03 0.04 0.01 0.00 0.00 0.01 0.00 0.01 0.01

GFSGL_prec_precacc12_360.txt.gz
Total_Precipitation_Accumulation
0.04 0.04 0.07 0.15 0.21 0.26 0.43 0.51 0.54 0.64 0.92 1.07 1.32 1.34 0.95 0.53 0.29 0.15 0.06 0.01 0.00 0.00 0.00 0.00 0.00 0.00 0.00 0.00 0.00 0.00 0.00 0.00 0.00 0.00 0.00 0.00 0.00 0.00 0.00 0.00 0.00 0.00 0.00
0.04 0.04 0.03 0.05 0.11 0.13 0.19 0.31 0.38 0.38 0.44 0.55 0.62 0.68 0.81 0.80 0.61 0.39 0.23 0.12 0.04 0.01 0.00 0.00 0.00 0.00 0.00 0.00 0.00 0.00 0.00 0.00 0.00 0.00 0.00 0.00 0.00 0.00 0.00 0.00 0.00 0.00 0.00
0.05 0.04 0.05 0.05 0.06 0.08 0.08 0.14 0.20 0.25 0.29 0.31 0.35 0.42 0.39 0.39 0.38 0.32 0.22 0.13 0.07 0.04 0.02 0.00 0.00 0.00 0.00 0.00 0.00 0.00 0.00 0.00 0.00 0.00 0.00 0.00 0.00 0.00 0.00 0.00 0.00 0.00 0.00
0.06 0.05 0.05 0.06 0.07 0.07 0.10 0.11 0.12 0.16 0.21 0.24 0.25 0.27 0.31 0.31 0.31 0.28 0.21 0.14 0.08 0.03 0.01 0.00 0.00 0.00 0.00 0.00 0.00 0.00 0.00 0.00 0.00 0.00 0.00 0.00 0.00 0.00 0.00 0.00 0.00 0.00 0.00
0.15 0.09 0.08 0.07 0.09 0.14 0.14 0.14 0.19 0.21 0.20 0.23 0.29 0.32 0.29 0.29 0.26 0.24 0.21 0.18 0.13 0.08 0.05 0.02 0.01 0.00 0.00 0.00 0.00 0.00 0.00 0.00 0.00 0.00 0.00 0.00 0.00 0.00 0.00 0.00 0.00 0.00 0.00
0.19 0.18 0.17 0.16 0.17 0.15 0.20 0.26 0.24 0.25 0.29 0.27 0.24 0.26 0.31 0.31 0.34 0.26 0.18 0.16 0.14 0.11 0.09 0.06 0.04 0.03 0.01 0.00 0.00 0.00 0.00 0.00 0.00 0.00 0.00 0.00 0.00 0.00 0.00 0.00 0.00 0.00 0.00
0.27 0.18 0.19 0.22 0.23 0.23 0.19 0.21 0.28 0.30 0.29 0.29 0.30 0.28 0.24 0.23 0.29 0.24 0.21 0.17 0.14 0.11 0.11 0.11 0.11 0.09 0.06 0.03 0.02 0.01 0.00 0.00 0.00 0.00 0.00 0.00 0.00 0.00 0.00 0.00 0.00 0.00 0.00
0.27 0.29 0.23 0.19 0.25 0.30 0.27 0.25 0.24 0.26 0.26 0.28 0.28 0.26 0.24 0.22 0.21 0.13 0.13 0.15 0.16 0.15 0.13 0.11 0.10 0.09 0.07 0.05 0.02 0.01 0.00 0.00 0.00 0.00 0.00 0.00 0.00 0.00 0.00 0.00 0.00 0.00 0.00
0.28 0.26 0.27 0.26 0.23 0.24 0.28 0.28 0.24 0.19 0.19 0.18 0.16 0.16 0.16 0.16 0.16 0.10 0.08 0.09 0.09 0.10 0.10 0.07 0.05 0.03 0.02 0.01 0.01 0.01 0.00 0.00 0.00 0.00 0.00 0.00 0.00 0.00 0.00 0.00 0.00 0.00 0.00
0.32 0.29 0.26 0.25 0.24 0.24 0.21 0.23 0.24 0.19 0.14 0.11 0.12 0.10 0.11 0.09 0.11 0.07 0.08 0.09 0.11 0.10 0.08 0.04 0.02 0.01 0.01 0.00 0.01 0.01 0.01 0.00 0.00 0.00 0.00 0.00 0.00 0.00 0.00 0.00 0.00 0.00 0.00
0.26 0.26 0.23 0.18 0.14 0.16 0.16 0.15 0.14 0.13 0.12 0.12 0.12 0.14 0.10 0.07 0.07 0.06 0.08 0.09 0.07 0.06 0.05 0.05 0.03 0.02 0.01 0.01 0.00 0.00 0.00 0.00 0.00 0.00 0.00 0.00 0.00 0.00 0.00 0.00 0.00 0.00 0.00
0.15 0.14 0.13 0.12 0.09 0.07 0.05 0.07 0.07 0.06 0.07 0.11 0.13 0.15 0.13 0.08 0.05 0.06 0.07 0.06 0.05 0.04 0.04 0.03 0.02 0.02 0.01 0.00 0.00 0.00 0.00 0.00 0.00 0.00 0.00 0.00 0.00 0.00 0.00 0.00 0.00 0.00 0.00
0.09 0.08 0.07 0.07 0.06 0.05 0.03 0.04 0.04 0.05 0.05 0.07 0.07 0.08 0.11 0.09 0.05 0.05 0.05 0.05 0.04 0.03 0.02 0.01 0.01 0.03 0.01 0.00 0.00 0.00 0.00 0.00 0.00 0.00 0.00 0.00 0.00 0.00 0.00 0.00 0.00 0.00 0.00
0.05 0.06 0.06 0.05 0.05 0.05 0.04 0.03 0.03 0.04 0.04 0.03 0.04 0.04 0.04 0.04 0.03 0.03 0.02 0.01 0.01 0.01 0.00 0.00 0.01 0.04 0.02 0.01 0.00 0.00 0.00 0.00 0.00 0.00 0.00 0.00 0.00 0.00 0.00 0.00 0.00 0.00 0.00
0.03 0.03 0.03 0.03 0.03 0.03 0.02 0.02 0.02 0.02 0.01 0.01 0.01 0.01 0.01 0.02 0.02 0.01 0.00 0.00 0.00 0.00 0.00 0.01 0.01 0.02 0.01 0.00 0.00 0.00 0.00 0.00 0.00 0.00 0.00 0.00 0.00 0.00 0.00 0.00 0.00 0.00 0.00
0.03 0.03 0.02 0.02 0.02 0.02 0.01 0.03 0.03 0.02 0.02 0.02 0.01 0.00 0.00 0.01 0.01 0.01 0.00 0.00 0.00 0.00 0.00 0.00 0.00 0.00 0.00 0.00 0.00 0.00 0.00 0.00 0.00 0.00 0.00 0.00 0.00 0.00 0.00 0.00 0.00 0.00 0.00
0.02 0.01 0.01 0.01 0.01 0.01 0.00 0.00 0.01 0.02 0.01 0.01 0.01 0.01 0.00 0.01 0.01 0.03 0.02 0.02 0.01 0.01 0.02 0.00 0.00 0.00 0.00 0.00 0.00 0.00 0.00 0.00 0.00 0.00 0.00 0.00 0.00 0.00 0.00 0.00 0.00 0.00 0.00
0.01 0.01 0.01 0.01 0.01 0.00 0.00 0.00 0.00 0.00 0.01 0.01 0.00 0.01 0.01 0.01 0.01 0.02 0.02 0.03 0.06 0.04 0.04 0.00 0.00 0.00 0.00 0.00 0.00 0.00 0.00 0.00 0.00 0.00 0.00 0.00 0.00 0.00 0.00 0.00 0.00 0.00 0.00
0.00 0.00 0.00 0.00 0.00 0.00 0.00 0.00 0.00 0.00 0.00 0.00 0.00 0.01 0.04 0.03 0.03 0.02 0.02 0.05 0.04 0.02 0.02 0.00 0.00 0.00 0.00 0.00 0.00 0.00 0.00 0.00 0.00 0.00 0.00 0.00 0.00 0.00 0.00 0.00 0.00 0.00 0.00
0.00 0.00 0.00 0.00 0.00 0.00 0.00 0.00 0.00 0.00 0.00 0.00 0.00 0.00 0.00 0.02 0.06 0.08 0.04 0.02 0.03 0.00 0.00 0.00 0.00 0.00 0.00 0.00 0.00 0.00 0.00 0.00 0.00 0.00 0.00 0.00 0.00 0.00 0.00 0.00 0.00 0.00 0.00
0.00 0.00 0.00 0.00 0.00 0.00 0.00 0.00 0.00 0.00 0.00 0.00 0.00 0.00 0.00 0.00 0.00 0.01 0.04 0.05 0.03 0.01 0.00 0.00 0.00 0.00 0.00 0.00 0.00 0.00 0.00 0.00 0.00 0.00 0.00 0.00 0.00 0.00 0.00 0.00 0.00 0.00 0.00
0.00 0.00 0.00 0.01 0.00 0.00 0.00 0.00 0.00 0.00 0.00 0.00 0.00 0.00 0.00 0.00 0.00 0.00 0.00 0.01 0.01 0.01 0.01 0.01 0.00 0.00 0.00 0.00 0.00 0.00 0.00 0.00 0.00 0.00 0.00 0.00 0.00 0.00 0.01 0.01 0.01 0.01 0.01
0.00 0.00 0.00 0.01 0.01 0.00 0.01 0.01 0.00 0.00 0.00 0.00 0.00 0.00 0.00 0.00 0.00 0.00 0.00 0.00 0.00 0.00 0.00 0.00 0.01 0.00 0.00 0.00 0.00 0.00 0.00 0.00 0.00 0.00 0.00 0.00 0.00 0.00 0.00 0.01 0.01 0.01 0.01
0.00 0.00 0.00 0.00 0.01 0.01 0.01 0.01 0.00 0.00 0.00 0.00 0.00 0.00 0.00 0.00 0.00 0.00 0.00 0.00 0.00 0.00 0.00 0.00 0.00 0.00 0.00 0.00 0.00 0.00 0.00 0.00 0.00 0.00 0.00 0.00 0.00 0.00 0.00 0.00 0.00 0.00 0.00
0.01 0.01 0.01 0.00 0.00 0.01 0.01 0.01 0.01 0.00 0.00 0.00 0.00 0.00 0.00 0.00 0.00 0.00 0.00 0.00 0.00 0.00 0.00 0.00 0.00 0.00 0.00 0.00 0.00 0.00 0.00 0.00 0.00 0.00 0.00 0.00 0.00 0.00 0.00 0.00 0.00 0.00 0.00
0.01 0.01 0.02 0.02 0.03 0.02 0.04 0.02 0.01 0.01 0.01 0.01 0.00 0.00 0.00 0.00 0.00 0.00 0.00 0.00 0.00 0.00 0.00 0.00 0.00 0.00 0.00 0.00 0.00 0.00 0.00 0.00 0.00 0.01 0.02 0.02 0.01 0.00 0.00 0.00 0.00 0.01 0.01

GFSGL_prec_precacc12_363.txt.gz
Total_Precipitation_Accumulation
0.08 0.05 0.08 0.14 0.15 0.15 0.28 0.56 0.77 0.88 1.34 1.60 1.73 1.74 1.30 0.71 0.33 0.17 0.06 0.01 0.00 0.00 0.00 0.00 0.00 0.00 0.00 0.00 0.00 0.00 0.00 0.00 0.00 0.00 0.00 0.00 0.00 0.00 0.00 0.00 0.00 0.00 0.00
0.11 0.07 0.05 0.05 0.10 0.12 0.14 0.20 0.30 0.43 0.65 0.95 1.19 1.34 1.67 1.78 1.40 0.87 0.50 0.27 0.12 0.04 0.01 0.00 0.00 0.00 0.00 0.00 0.00 0.00 0.00 0.00 0.00 0.00 0.00 0.00 0.00 0.00 0.00 0.00 0.00 0.00 0.00
0.10 0.10 0.08 0.05 0.04 0.04 0.06 0.06 0.09 0.16 0.27 0.35 0.43 0.50 0.51 0.60 0.76 0.82 0.71 0.56 0.43 0.30 0.18 0.08 0.03 0.00 0.00 0.00 0.00 0.00 0.00 0.00 0.00 0.00 0.00 0.00 0.00 0.00 0.00 0.00 0.00 0.00 0.00
0.10 0.09 0.08 0.06 0.03 0.03 0.03 0.03 0.05 0.07 0.13 0.19 0.25 0.32 0.32 0.28 0.28 0.28 0.25 0.23 0.21 0.17 0.14 0.11 0.07 0.03 0.01 0.00 0.00 0.00 0.00 0.00 0.00 0.00 0.00 0.00 0.00 0.00 0.00 0.00 0.00 0.00 0.00
0.24 0.11 0.07 0.06 0.04 0.03 0.04 0.04 0.04 0.05 0.07 0.11 0.18 0.22 0.23 0.23 0.21 0.20 0.19 0.17 0.15 0.13 0.11 0.08 0.05 0.03 0.01 0.00 0.00 0.00 0.00 0.00 0.00 0.00 0.00 0.00 0.00 0.00 0.00 0.00 0.00 0.00 0.00
0.26 0.25 0.14 0.07 0.05 0.06 0.07 0.07 0.08 0.08 0.08 0.09 0.11 0.16 0.22 0.25 0.32 0.25 0.18 0.16 0.16 0.14 0.13 0.11 0.09 0.08 0.03 0.01 0.00 0.00 0.00 0.00 0.00 0.00 0.00 0.00 0.00 0.00 0.00 0.00 0.00 0.00 0.00
0.28 0.23 0.20 0.16 0.10 0.07 0.09 0.11 0.11 0.14 0.15 0.16 0.20 0.19 0.19 0.20 0.29 0.24 0.22 0.18 0.17 0.16 0.15 0.15 0.14 0.12 0.10 0.06 0.05 0.04 0.03 0.02 0.02 0.02 0.01 0.01 0.00 0.00 0.00 0.00 0.00 0.00 0.00
0.29 0.32 0.25 0.19 0.18 0.17 0.13 0.11 0.12 0.15 0.17 0.20 0.22 0.22 0.23 0.21 0.21 0.13 0.14 0.16 0.17 0.17 0.15 0.14 0.13 0.13 0.11 0.10 0.09 0.08 0.07 0.05 0.04 0.02 0.01 0.00 0.00 0.00 0.00 0.00 0.00 0.00 0.00
0.31 0.28 0.30 0.29 0.24 0.20 0.19 0.16 0.15 0.13 0.17 0.18 0.15 0.15 0.16 0.17 0.18 0.11 0.08 0.09 0.09 0.11 0.11 0.09 0.08 0.08 0.09 0.08 0.06 0.05 0.04 0.02 0.01 0.01 0.01 0.01 0.00 0.00 0.00 0.00 0.00 0.00 0.00
0.43 0.36 0.31 0.29 0.28 0.27 0.22 0.21 0.22 0.18 0.15 0.11 0.12 0.11 0.12 0.10 0.15 0.09 0.09 0.11 0.14 0.13 0.12 0.08 0.05 0.04 0.05 0.03 0.03 0.02 0.02 0.01 0.01 0.01 0.00 0.00 0.00 0.00 0.00 0.00 0.00 0.00 0.00
0.42 0.43 0.38 0.33 0.29 0.27 0.27 0.28 0.24 0.21 0.18 0.16 0.15 0.17 0.12 0.08 0.08 0.07 0.09 0.11 0.10 0.10 0.10 0.10 0.06 0.06 0.04 0.01 0.01 0.01 0.01 0.00 0.00 0.00 0.00 0.00 0.00 0.00 0.00 0.00 0.00 0.00 0.00
0.31 0.32 0.36 0.36 0.31 0.27 0.22 0.23 0.23 0.23 0.23 0.23 0.21 0.22 0.19 0.11 0.07 0.08 0.09 0.08 0.06 0.05 0.06 0.05 0.04 0.06 0.02 0.01 0.00 0.00 0.00 0.00 0.00 0.00 0.00 0.00 0.00 0.00 0.00 0.00 0.00 0.00 0.00
0.24 0.24 0.23 0.25 0.25 0.24 0.21 0.20 0.18 0.18 0.19 0.22 0.20 0.18 0.17 0.12 0.08 0.08 0.07 0.07 0.05 0.05 0.04 0.03 0.04 0.06 0.03 0.01 0.00 0.01 0.01 0.00 0.00 0.00 0.00 0.00 0.00 0.00 0.00 0.00 0.00 0.00 0.00
0.17 0.18 0.17 0.16 0.16 0.16 0.15 0.15 0.14 0.13 0.12 0.11 0.11 0.11 0.10 0.09 0.06 0.05 0.04 0.03 0.03 0.03 0.03 0.02 0.04 0.09 0.04 0.02 0.01 0.01 0.00 0.00 0.00 0.00 0.00 0.00 0.00 0.00 0.00 0.00 0.00 0.00 0.00
0.11 0.12 0.13 0.12 0.10 0.10 0.09 0.08 0.08 0.08 0.06 0.05 0.04 0.03 0.03 0.04 0.03 0.02 0.01 0.01 0.01 0.00 0.01 0.03 0.06 0.08 0.06 0.04 0.01 0.00 0.00 0.00 0.00 0.00 0.00 0.00 0.00 0.00 0.00 0.00 0.00 0.00 0.00
0.07 0.07 0.08 0.08 0.08 0.07 0.06 0.08 0.08 0.07 0.06 0.05 0.03 0.02 0.02 0.01 0.01 0.02 0.01 0.01 0.01 0.00 0.02 0.02 0.02 0.03 0.03 0.02 0.01 0.00 0.00 0.00 0.00 0.00 0.00 0.00 0.00 0.00 0.00 0.00 0.00 0.00 0.00
0.04 0.04 0.04 0.04 0.04 0.04 0.04 0.03 0.05 0.07 0.06 0.03 0.03 0.02 0.01 0.01 0.02 0.04 0.03 0.04 0.03 0.04 0.03 0.02 0.02 0.02 0.01 0.00 0.00 0.00 0.00 0.00 0.00 0.00 0.00 0.00 0.00 0.00 0.00 0.00 0.00 0.00 0.00
0.03 0.03 0.04 0.03 0.03 0.03 0.02 0.02 0.02 0.02 0.04 0.06 0.05 0.03 0.02 0.02 0.03 0.04 0.04 0.05 0.07 0.05 0.03 0.01 0.00 0.00 0.00 0.00 0.00 0.00 0.00 0.00 0.00 0.00 0.00 0.00 0.00 0.00 0.00 0.00 0.00 0.00 0.00
0.02 0.02 0.03 0.02 0.02 0.02 0.02 0.02 0.01 0.02 0.02 0.02 0.03 0.04 0.04 0.04 0.04 0.04 0.04 0.05 0.04 0.02 0.02 0.00 0.00 0.00 0.00 0.00 0.00 0.00 0.00 0.00 0.00 0.00 0.00 0.00 0.00 0.00 0.00 0.00 0.00 0.00 0.00
0.01 0.01 0.01 0.01 0.01 0.01 0.01 0.01 0.00 0.01 0.01 0.01 0.01 0.01 0.01 0.03 0.07 0.07 0.06 0.04 0.03 0.00 0.00 0.00 0.00 0.00 0.00 0.00 0.00 0.00 0.00 0.00 0.00 0.00 0.00 0.00 0.00 0.00 0.00 0.00 0.00 0.00 0.00
0.00 0.00 0.01 0.01 0.00 0.00 0.00 0.00 0.00 0.00 0.00 0.00 0.00 0.00 0.00 0.00 0.00 0.01 0.04 0.06 0.03 0.01 0.00 0.00 0.00 0.00 0.00 0.00 0.00 0.00 0.00 0.00 0.00 0.00 0.00 0.00 0.00 0.00 0.00 0.00 0.00 0.00 0.00
0.00 0.00 0.00 0.02 0.00 0.00 0.00 0.00 0.00 0.00 0.00 0.00 0.00 0.00 0.00 0.01 0.01 0.00 0.00 0.01 0.01 0.01 0.01 0.01 0.00 0.00 0.00 0.00 0.00 0.00 0.00 0.00 0.00 0.00 0.00 0.00 0.00 0.00 0.01 0.01 0.02 0.01 0.01
0.00 0.00 0.00 0.01 0.02 0.00 0.01 0.01 0.00 0.00 0.00 0.00 0.00 0.00 0.00 0.00 0.00 0.00 0.00 0.00 0.00 0.00 0.00 0.00 0.01 0.01 0.00 0.00 0.00 0.00 0.00 0.00 0.00 0.00 0.00 0.00 0.00 0.00 0.01 0.02 0.02 0.01 0.01
0.00 0.00 0.00 0.01 0.01 0.01 0.02 0.01 0.01 0.01 0.00 0.00 0.00 0.00 0.00 0.00 0.00 0.00 0.00 0.00 0.00 0.00 0.00 0.00 0.00 0.00 0.00 0.00 0.00 0.00 0.00 0.00 0.00 0.00 0.00 0.00 0.00 0.00 0.00 0.01 0.01 0.01 0.00
0.01 0.01 0.01 0.01 0.01 0.01 0.02 0.02 0.01 0.01 0.01 0.00 0.00 0.00 0.00 0.00 0.00 0.00 0.00 0.00 0.00 0.00 0.00 0.00 0.00 0.00 0.00 0.00 0.00 0.00 0.00 0.00 0.00 0.00 0.00 0.00 0.00 0.00 0.00 0.00 0.00 0.00 0.01
0.00 0.01 0.01 0.02 0.03 0.03 0.04 0.03 0.02 0.01 0.02 0.01 0.00 0.00 0.00 0.00 0.00 0.00 0.00 0.00 0.00 0.00 0.00 0.00 0.00 0.00 0.00 0.00 0.00 0.00 0.00 0.00 0.00 0.00 0.01 0.01 0.00 0.00 0.00 0.00 0.00 0.00 0.01

GFSGL_prec_precacc12_369.txt.gz
Total_Precipitation_Accumulation
0.21 0.15 0.12 0.12 0.11 0.17 0.30 0.49 0.65 0.81 1.31 1.32 1.23 1.32 1.11 0.60 0.26 0.13 0.06 0.02 0.02 0.03 0.01 0.00 0.00 0.00 0.00 0.00 0.00 0.00 0.00 0.00 0.00 0.00 0.00 0.00 0.00 0.00 0.00 0.00 0.00 0.00 0.00
0.23 0.23 0.19 0.15 0.13 0.12 0.14 0.22 0.27 0.34 0.64 1.05 1.27 1.38 1.77 1.94 1.54 0.98 0.59 0.33 0.16 0.07 0.02 0.01 0.00 0.00 0.00 0.00 0.00 0.00 0.00 0.00 0.00 0.00 0.00 0.00 0.00 0.00 0.00 0.00 0.00 0.00 0.00
0.16 0.24 0.26 0.23 0.19 0.10 0.08 0.09 0.14 0.17 0.20 0.35 0.63 0.92 1.03 1.28 1.53 1.60 1.56 1.38 1.11 0.80 0.49 0.22 0.08 0.03 0.01 0.00 0.00 0.00 0.00 0.00 0.00 0.00 0.00 0.00 0.00 0.00 0.00 0.00 0.00 0.00 0.00
0.13 0.13 0.18 0.18 0.17 0.15 0.11 0.09 0.09 0.08 0.11 0.11 0.15 0.33 0.62 0.78 0.92 1.00 1.00 1.01 1.05 1.05 1.04 0.92 0.72 0.46 0.23 0.10 0.04 0.01 0.00 0.00 0.00 0.00 0.00 0.00 0.00 0.00 0.00 0.00 0.00 0.00 0.00
0.19 0.12 0.12 0.13 0.17 0.17 0.12 0.10 0.08 0.07 0.05 0.05 0.06 0.07 0.10 0.25 0.34 0.46 0.53 0.50 0.51 0.48 0.44 0.38 0.33 0.31 0.26 0.17 0.11 0.05 0.02 0.00 0.00 0.00 0.00 0.00 0.00 0.00 0.00 0.00 0.00 0.00 0.00
0.16 0.17 0.13 0.13 0.15 0.17 0.17 0.12 0.10 0.07 0.03 0.02 0.01 0.04 0.08 0.07 0.11 0.11 0.10 0.11 0.09 0.09 0.10 0.09 0.09 0.11 0.07 0.04 0.03 0.01 0.00 0.00 0.00 0.00 0.00 0.00 0.00 0.00 0.00 0.00 0.00 0.00 0.00
0.12 0.14 0.19 0.18 0.12 0.11 0.13 0.17 0.11 0.08 0.05 0.03 0.01 0.01 0.02 0.04 0.15 0.09 0.07 0.06 0.06 0.06 0.06 0.08 0.11 0.13 0.14 0.09 0.10 0.08 0.05 0.04 0.03 0.03 0.03 0.02 0.02 0.02 0.02 0.01 0.00 0.00 0.00
0.18 0.20 0.17 0.21 0.22 0.15 0.12 0.13 0.12 0.12 0.08 0.03 0.02 0.02 0.03 0.06 0.14 0.08 0.07 0.04 0.05 0.07 0.08 0.11 0.13 0.14 0.14 0.14 0.11 0.11 0.10 0.08 0.05 0.03 0.02 0.01 0.01 0.01 0.01 0.00 0.00 0.00 0.00
0.29 0.27 0.27 0.25 0.26 0.28 0.23 0.14 0.15 0.15 0.14 0.12 0.06 0.03 0.04 0.07 0.13 0.07 0.06 0.07 0.07 0.08 0.08 0.08 0.09 0.09 0.17 0.13 0.07 0.06 0.05 0.03 0.03 0.02 0.01 0.01 0.01 0.01 0.01 0.00 0.00 0.00 0.00
0.53 0.41 0.36 0.34 0.31 0.33 0.34 0.32 0.26 0.19 0.21 0.21 0.18 0.15 0.15 0.08 0.15 0.07 0.06 0.08 0.13 0.17 0.18 0.15 0.16 0.08 0.15 0.08 0.04 0.03 0.03 0.03 0.02 0.02 0.01 0.00 0.00 0.00 0.00 0.00 0.00 0.00 0.00
0.56 0.55 0.49 0.44 0.40 0.37 0.35 0.39 0.40 0.38 0.34 0.28 0.24 0.22 0.15 0.16 0.14 0.10 0.09 0.11 0.10 0.10 0.12 0.14 0.13 0.16 0.09 0.05 0.04 0.03 0.03 0.03 0.03 0.03 0.02 0.01 0.01 0.00 0.00 0.00 0.00 0.00 0.00
0.51 0.50 0.51 0.52 0.48 0.42 0.41 0.38 0.38 0.46 0.50 0.51 0.47 0.42 0.33 0.22 0.18 0.19 0.20 0.16 0.14 0.11 0.13 0.09 0.10 0.18 0.08 0.05 0.04 0.03 0.04 0.04 0.03 0.04 0.04 0.03 0.02 0.01 0.00 0.00 0.00 0.00 0.00
0.32 0.40 0.45 0.47 0.50 0.51 0.47 0.46 0.46 0.39 0.37 0.46 0.50 0.51 0.51 0.41 0.30 0.24 0.20 0.19 0.18 0.15 0.11 0.12 0.18 0.17 0.08 0.05 0.03 0.05 0.06 0.03 0.04 0.04 0.03 0.02 0.01 0.00 0.00 0.00 0.00 0.00 0.00
0.21 0.26 0.31 0.36 0.40 0.42 0.46 0.49 0.45 0.43 0.37 0.32 0.32 0.37 0.47 0.56 0.49 0.37 0.26 0.20 0.14 0.13 0.18 0.23 0.23 0.18 0.10 0.05 0.06 0.09 0.03 0.01 0.01 0.01 0.01 0.01 0.01 0.00 0.00 0.00 0.00 0.00 0.00
0.16 0.19 0.22 0.26 0.29 0.33 0.34 0.36 0.37 0.38 0.34 0.31 0.30 0.27 0.28 0.31 0.34 0.36 0.36 0.32 0.23 0.19 0.21 0.25 0.26 0.20 0.15 0.14 0.10 0.05 0.03 0.04 0.03 0.01 0.01 0.01 0.00 0.00 0.00 0.00 0.00 0.00 0.00
0.12 0.14 0.16 0.19 0.22 0.25 0.27 0.30 0.30 0.30 0.31 0.30 0.28 0.30 0.32 0.29 0.29 0.29 0.24 0.19 0.25 0.30 0.29 0.24 0.15 0.10 0.10 0.09 0.06 0.06 0.05 0.02 0.00 0.00 0.00 0.00 0.00 0.00 0.00 0.00 0.00 0.00 0.00
0.11 0.11 0.13 0.14 0.16 0.18 0.20 0.22 0.25 0.28 0.28 0.25 0.24 0.24 0.22 0.25 0.24 0.24 0.20 0.19 0.19 0.16 0.14 0.12 0.07 0.07 0.07 0.05 0.03 0.02 0.02 0.01 0.00 0.00 0.00 0.00 0.00 0.00 0.00 0.00 0.00 0.00 0.00
0.10 0.11 0.12 0.11 0.12 0.13 0.15 0.16 0.17 0.19 0.25 0.29 0.29 0.25 0.23 0.24 0.22 0.21 0.20 0.23 0.28 0.19 0.09 0.07 0.06 0.07 0.06 0.04 0.03 0.02 0.02 0.01 0.01 0.00 0.00 0.00 0.00 0.00 0.00 0.00 0.00 0.00 0.00
0.08 0.10 0.11 0.10 0.10 0.10 0.11 0.12 0.13 0.15 0.16 0.18 0.23 0.27 0.25 0.23 0.22 0.22 0.22 0.16 0.12 0.11 0.12 0.10 0.08 0.06 0.05 0.03 0.02 0.02 0.01 0.00 0.00 0.00 0.00 0.00 0.00 0.00 0.00 0.00 0.00 0.00 0.00
0.04 0.08 0.10 0.09 0.08 0.09 0.09 0.10 0.10 0.12 0.13 0.14 0.14 0.14 0.19 0.23 0.23 0.21 0.17 0.11 0.08 0.08 0.07 0.05 0.04 0.03 0.03 0.02 0.02 0.01 0.01 0.01 0.00 0.00 0.00 0.00 0.00 0.00 0.00 0.00 0.00 0.00 0.00
0.00 0.02 0.07 0.09 0.07 0.08 0.09 0.09 0.09 0.10 0.09 0.10 0.10 0.10 0.10 0.11 0.09 0.09 0.09 0.10 0.08 0.06 0.05 0.04 0.03 0.03 0.02 0.01 0.01 0.01 0.01 0.00 0.00 0.00 0.00 0.00 0.00 0.00 0.00 0.00 0.00 0.00 0.00
0.00 0.00 0.01 0.05 0.07 0.08 0.08 0.09 0.09 0.08 0.08 0.08 0.08 0.09 0.10 0.09 0.06 0.05 0.05 0.06 0.06 0.05 0.05 0.04 0.02 0.01 0.01 0.00 0.00 0.00 0.00 0.00 0.00 0.00 0.00 0.00 0.00 0.00 0.00 0.01 0.02 0.02 0.01
0.00 0.00 0.00 0.01 0.03 0.05 0.08 0.09 0.08 0.07 0.07 0.06 0.06 0.07 0.08 0.07 0.04 0.04 0.04 0.04 0.05 0.05 0.04 0.03 0.02 0.01 0.00 0.00 0.00 0.00 0.00 0.00 0.00 0.00 0.00 0.00 0.01 0.01 0.01 0.02 0.02 0.02 0.02
0.01 0.00 0.00 0.01 0.01 0.02 0.05 0.06 0.07 0.07 0.07 0.07 0.05 0.04 0.03 0.03 0.03 0.03 0.03 0.03 0.03 0.03 0.02 0.01 0.00 0.00 0.00 0.00 0.00 0.00 0.00 0.00 0.00 0.00 0.00 0.01 0.01 0.01 0.02 0.02 0.02 0.01 0.00
0.00 0.01 0.01 0.01 0.01 0.01 0.02 0.04 0.05 0.05 0.05 0.05 0.05 0.05 0.04 0.02 0.01 0.01 0.01 0.00 0.00 0.00 0.00 0.00 0.00 0.00 0.00 0.00 0.00 0.00 0.00 0.00 0.01 0.01 0.00 0.02 0.02 0.01 0.01 0.01 0.00 0.01 0.01
0.00 0.00 0.01 0.01 0.02 0.02 0.02 0.02 0.03 0.03 0.05 0.05 0.04 0.04 0.03 0.03 0.02 0.01 0.01 0.01 0.00 0.00 0.00 0.00 0.00 0.00 0.00 0.00 0.00 0.00 0.00 0.00 0.01 0.02 0.01 0.02 0.02 0.02 0.01 0.01 0.01 0.01 0.01